WB5MTX Weather Reports


Display with metric or nautical units.
time (UTC)temp
F
wind
direction
speed
MPH
gust
MPH
rain 1hr
in
rain 24hr
in
rain mn
in
humidity
%
barometer
mb
20260904010105 86 0 3.0 10.0 0.00 0.00 0.00 60 1010.9
20260904004601 86 0 1.0 11.0 0.00 0.00 0.00 61 1011.0
20260904003116 87 115 3.0 16.0 0.00 0.00 0.00 61 1011.0
20260904001600 88 106 4.0 12.0 0.00 0.00 0.00 61 1010.8
20260904000053 89 153 2.0 11.0 0.00 0.00 0.00 59 1010.7
20260903234612 90 85 4.0 13.0 0.00 0.00 0.00 59 1010.8
20260903233059 91 90 2.0 14.0 0.00 0.00 0.00 60 1010.5
20260903231600 91 95 3.0 10.0 0.00 0.00 0.00 60 1010.3
20260903230109 91 110 3.0 10.0 0.00 0.00 0.00 59 1010.4
20260903224559 91 105 1.0 14.0 0.00 0.00 0.00 60 1010.4
20260903223101 91 147 3.0 11.0 0.00 0.00 0.00 61 1010.5
20260903221606 91 0 2.0 11.0 0.00 0.00 0.00 62 1010.5
20260903220107 91 151 3.0 10.0 0.00 0.00 0.00 61 1010.6
20260903214600 92 107 2.0 15.0 0.00 0.00 0.00 60 1010.7
20260903213102 91 0 3.0 12.0 0.00 0.00 0.00 61 1010.6
20260903211600 91 0 2.0 13.0 0.00 0.00 0.00 62 1010.9
20260903204605 91 114 3.0 11.0 0.00 0.00 0.00 63 1011.1
20260903203102 91 0 2.0 13.0 0.00 0.00 0.00 62 1011.3
20260903201603 92 105 2.0 9.0 0.00 0.00 0.00 60 1011.3
20260903200112 90 102 2.0 8.0 0.00 0.00 0.00 65 1011.4
20260903194606 90 143 0.0 9.0 0.00 0.00 0.00 65 1011.7
20260903193118 89 0 1.0 7.0 0.00 0.00 0.00 66 1011.9
20260903191607 88 0 1.0 8.0 0.00 0.00 0.00 67 1012.1
20260903190105 88 0 2.0 8.0 0.00 0.00 0.00 65 1012.5
20260903184605 89 0 2.0 10.0 0.00 0.00 0.00 64 1012.7
20260903183106 90 108 2.0 12.0 0.00 0.00 0.00 63 1012.8
20260903181607 90 92 1.0 12.0 0.00 0.00 0.00 63 1012.9
20260903180113 90 133 1.0 9.0 0.00 0.00 0.00 64 1013.0
20260903174600 89 96 3.0 10.0 0.00 0.00 0.00 64 1013.2
20260903173107 89 107 1.0 7.0 0.00 0.00 0.00 65 1013.3
20260903171559 88 205 0.0 6.0 0.00 0.00 0.00 66 1013.5
20260903170219 87 211 0.0 8.0 0.00 0.00 0.00 68 1013.5
20260903164603 86 96 1.0 6.0 0.00 0.00 0.00 70 1013.5
20260903163103 85 0 1.0 6.0 0.00 0.00 0.00 71 1013.4
20260903161622 84 0 0.0 4.0 0.00 0.00 0.00 73 1013.5
20260903160101 83 0 0.0 3.0 0.00 0.00 0.00 76 1013.5
20260903154601 82 0 0.0 4.0 0.00 0.00 0.00 77 1013.5
20260903153100 81 108 0.0 3.0 0.00 0.00 0.00 78 1013.5
20260903151557 80 0 1.0 7.0 0.00 0.00 0.00 79 1013.6
20260903144602 80 155 0.0 6.0 0.00 0.00 0.00 80 1013.6
20260903143103 79 0 0.0 4.0 0.00 0.00 0.00 80 1013.5
20260903141559 78 0 1.0 7.0 0.00 0.00 0.00 81 1013.4
20260903134603 77 0 0.0 4.0 0.00 0.00 0.00 83 1013.2
20260903133104 77 0 0.0 0.0 0.00 0.00 0.00 83 1013.4
20260903131606 76 0 0.0 0.0 0.00 0.00 0.00 84 1013.3
20260903130106 76 0 0.0 0.0 0.00 0.00 0.00 84 1013.3
20260903124608 76 0 0.0 0.0 0.00 0.00 0.00 84 1013.2
20260903123106 76 0 0.0 4.0 0.00 0.00 0.00 83 1013.2
20260903121601 76 0 0.0 0.0 0.00 0.00 0.00 83 1013.1
20260903120106 76 0 0.0 3.0 0.00 0.00 0.00 83 1013.0
20260903114614 76 0 0.0 3.0 0.00 0.00 0.00 82 1012.9
20260903113109 76 142 0.0 0.0 0.00 0.00 0.00 82 1012.9
20260903111603 76 0 0.0 0.0 0.00 0.00 0.00 82 1012.9
20260903110107 76 0 0.0 0.0 0.00 0.00 0.00 81 1012.8
20260903104604 76 0 0.0 3.0 0.00 0.00 0.00 81 1012.6
20260903103101 76 0 0.0 0.0 0.00 0.00 0.00 81 1012.7
20260903101602 76 0 0.0 0.0 0.00 0.00 0.00 81 1012.7
20260903100058 76 0 0.0 0.0 0.00 0.00 0.00 81 1012.7
20260903094605 76 0 0.0 0.0 0.00 0.00 0.00 81 1012.5
20260903093105 76 0 0.0 0.0 0.00 0.00 0.00 81 1012.4
20260903091608 76 0 0.0 0.0 0.00 0.00 0.00 81 1012.4
20260903090101 76 0 0.0 0.0 0.00 0.00 0.00 81 1012.4
20260903084618 76 0 0.0 0.0 0.00 0.00 0.00 80 1012.6
20260903083103 77 0 0.0 0.0 0.00 0.00 0.00 79 1012.9
20260903081602 77 0 0.0 0.0 0.00 0.00 0.00 78 1012.8
20260903080100 77 0 0.0 0.0 0.00 0.00 0.00 77 1012.9
20260903074604 78 0 0.0 0.0 0.00 0.00 0.00 76 1012.8
20260903073107 78 0 0.0 0.0 0.00 0.00 0.00 75 1012.8
20260903071559 79 0 0.0 0.0 0.00 0.00 0.00 74 1012.8
20260903070057 79 0 0.0 0.0 0.00 0.00 0.00 73 1013.1
20260903064600 79 0 0.0 3.0 0.00 0.00 0.00 72 1013.2
20260903063103 80 0 0.0 6.0 0.00 0.00 0.00 71 1013.4
20260903061558 80 0 0.0 9.0 0.00 0.00 0.00 71 1013.4
20260903060109 81 0 1.0 8.0 0.00 0.00 0.00 69 1013.4
20260903054558 81 110 0.0 6.0 0.00 0.00 0.00 68 1013.6
20260903053107 82 107 0.0 4.0 0.00 0.00 0.00 67 1013.3
20260903051605 82 0 0.0 8.0 0.00 0.00 0.00 67 1013.3
20260903050105 83 151 0.0 4.0 0.00 0.00 0.00 67 1013.3
20260903044604 83 0 0.0 7.0 0.00 0.00 0.00 66 1013.1
20260903043059 84 0 0.0 6.0 0.00 0.00 0.00 65 1013.2
20260903041601 85 0 0.0 4.0 0.00 0.00 0.00 64 1013.2
20260903040101 85 101 1.0 6.0 0.00 0.00 0.00 63 1013.4
20260903034559 86 0 1.0 7.0 0.00 0.00 0.00 61 1013.2
20260903033102 86 0 0.0 6.0 0.00 0.00 0.00 59 1013.2
20260903031558 87 0 1.0 6.0 0.00 0.00 0.00 58 1013.1
20260903030103 87 0 0.0 7.0 0.00 0.00 0.00 57 1013.0
20260903024600 88 0 0.0 7.0 0.00 0.00 0.00 56 1012.8
20260903023102 88 94 1.0 7.0 0.00 0.00 0.00 55 1012.5
20260903021602 89 105 0.0 6.0 0.00 0.00 0.00 54 1012.4
20260903020104 90 158 0.0 9.0 0.00 0.00 0.00 52 1012.1
20260903014612 91 0 1.0 10.0 0.00 0.00 0.00 49 1012.0
20260903013103 92 0 0.0 8.0 0.00 0.00 0.00 46 1011.8
20260903011608 92 113 3.0 10.0 0.00 0.00 0.00 45 1011.6